Theta_e
296 295 294 295 297 295 294 292 292 292 292 292 291 292 291 292 291 291 292 292 292 292 292 292 292 292 292 292 292 292 292 291 290 291 291 291 290 290 290 290 290 289
295 294 295 296 298 296 293 293 292 292 292 292 293 292 292 291 290 291 291 291 291 291 290 290 290 290 290 290 291 290 289 289 288 290 289 289 288 289 288 288 288 287
294 293 294 294 295 295 294 292 291 291 292 292 293 292 291 290 290 290 290 290 289 289 289 289 289 289 289 289 290 289 288 288 287 288 288 287 287 287 287 287 287 287
293 293 293 293 292 293 292 291 289 290 291 291 291 291 290 290 289 289 289 288 288 288 288 288 288 288 288 288 288 288 287 287 286 287 286 286 286 286 286 286 285 285
292 292 292 292 291 290 289 289 288 289 289 290 290 289 288 288 288 288 288 287 287 287 287 287 287 287 287 287 287 286 285 285 285 286 285 284 284 284 284 284 283 282
291 291 291 290 290 289 288 288 288 288 289 289 288 288 288 288 288 287 287 286 286 286 286 286 286 286 286 286 286 285 285 284 284 284 283 283 282 282 281 282 281 281
290 290 289 288 287 287 287 287 287 288 288 288 288 287 288 287 287 287 286 286 286 285 285 285 285 284 285 285 285 284 284 283 283 283 282 281 281 280 281 281 281 281
290 290 289 288 287 286 287 287 287 287 288 287 287 287 287 287 287 286 286 285 285 285 284 284 284 284 284 284 284 283 282 282 282 282 281 281 280 280 280 281 281 280
290 288 288 287 286 286 286 286 286 286 286 286 286 286 287 286 286 285 285 285 285 284 284 284 284 283 284 284 283 282 282 281 281 282 281 280 280 280 280 281 280 280
288 287 285 285 285 285 285 285 285 285 285 285 286 286 285 285 285 285 285 284 284 283 283 283 283 283 283 283 283 282 282 281 281 281 281 281 281 280 280 280 279 279
287 286 284 284 284 284 284 284 284 284 285 284 285 285 285 284 284 284 284 284 283 283 283 282 282 282 282 282 282 282 282 282 281 281 281 280 280 279 279 279 279 279
286 285 284 284 284 284 283 283 284 284 284 284 284 284 284 284 283 283 283 283 283 283 283 282 282 282 282 282 282 282 281 281 280 279 279 278 278 278 278 278 278 279
285 285 284 284 284 284 284 284 284 284 284 283 284 284 283 283 283 283 283 283 283 283 282 282 282 282 282 281 281 281 280 279 278 278 277 277 277 277 278 278 278 278
286 286 285 285 285 285 284 284 284 284 283 283 284 283 283 283 283 282 283 283 282 282 282 282 281 281 280 280 280 279 279 278 277 277 276 276 277 277 277 277 277 278
287 287 286 286 284 283 283 283 283 283 283 283 283 283 283 283 283 282 282 282 282 281 281 281 280 279 279 279 278 278 278 277 277 277 276 276 276 276 277 277 277 277
286 286 286 285 283 282 282 283 283 282 282 282 282 283 282 282 282 282 282 281 280 280 280 280 279 279 279 280 280 278 278 277 277 277 277 276 276 276 276 276 277 277
285 285 284 283 283 282 283 282 282 282 282 282 282 282 281 281 281 280 280 279 279 279 279 279 278 278 281 282 282 281 278 277 277 277 277 277 277 276 276 276 277 277
285 285 284 283 283 282 283 282 282 282 281 281 281 281 281 281 280 280 280 279 279 279 278 277 276 280 283 283 283 282 280 278 278 277 277 277 277 277 277 277 276 276
285 285 284 283 283 283 283 282 281 280 280 280 280 281 280 280 280 279 278 278 278 277 276 276 276 281 284 284 284 283 282 279 278 278 277 277 277 277 277 277 277 276
285 284 284 283 283 283 282 282 280 280 280 280 280 280 279 279 279 278 278 278 277 277 276 276 276 282 284 284 284 283 283 280 278 278 277 277 277 277 277 277 277 276
285 284 284 283 282 282 282 281 280 280 280 280 280 279 279 278 278 278 278 277 277 277 277 276 276 283 285 285 284 284 283 281 278 278 278 277 278 277 277 277 277 277
285 284 284 283 282 282 282 281 280 280 280 280 280 280 280 280 279 279 277 277 277 277 277 276 276 283 285 285 285 285 284 279 278 277 277 277 277 277 277 277 277 276
285 284 284 283 283 282 281 280 280 280 280 280 279 279 279 279 278 278 278 277 277 277 276 276 276 282 285 285 285 285 284 278 278 277 277 277 276 277 277 276 276 276
285 285 283 283 282 281 281 281 281 281 280 280 279 278 278 278 279 278 277 277 277 276 277 276 276 281 285 285 285 286 283 279 278 277 277 277 276 277 277 276 276 276
285 285 284 283 282 282 281 281 281 281 281 280 280 279 279 279 278 278 278 278 277 277 278 277 276 280 285 285 285 286 284 280 278 277 276 276 276 276 276 276 276 276
285 284 284 283 283 282 282 282 281 281 280 279 279 279 278 278 278 278 276 276 277 276 277 277 276 279 283 285 286 286 286 283 280 278 277 277 277 276 276 276 276 275
Wind_Speed
7 7 8 8 8 7 8 6 7 8 7 6 7 8 8 7 8 7 7 6 6 6 6 6 6 6 5 5 4 6 5 6 5 5 5 6 6 6 6 6 7 6
7 8 6 7 5 6 6 3 5 7 7 8 7 7 6 8 7 7 7 7 6 6 6 6 6 7 6 6 5 6 6 6 6 3 6 7 6 7 7 8 8 7
8 8 8 8 9 9 10 8 4 4 5 5 4 6 6 7 8 6 6 7 7 7 6 7 7 6 6 6 6 6 6 7 7 5 6 6 5 6 7 6 6 6
8 9 9 9 6 8 6 8 6 4 3 5 6 4 5 7 8 8 7 7 7 7 7 7 7 7 7 7 7 7 7 6 6 6 7 6 6 6 6 6 6 5
10 8 8 7 7 8 7 8 8 7 7 7 6 6 6 8 9 8 7 7 7 7 7 8 7 7 7 7 7 8 7 7 6 6 7 7 5 6 5 5 6 6
8 7 7 9 9 10 9 9 8 8 8 8 8 7 7 8 8 9 8 9 7 8 8 8 8 7 7 8 7 7 7 7 6 7 8 8 6 5 4 5 6 6
10 9 9 7 8 7 8 7 7 7 7 7 8 8 8 8 9 9 9 9 9 9 9 9 9 8 7 7 7 7 6 7 7 7 8 7 7 7 5 6 6 6
9 9 8 9 9 8 9 8 7 8 7 8 9 9 9 9 10 9 9 10 9 9 9 8 8 8 8 7 8 8 8 5 7 8 8 8 7 8 7 5 6 6
9 8 8 11 10 9 9 8 8 8 8 9 9 9 9 9 10 10 11 10 9 9 9 9 9 8 7 7 8 9 9 7 7 8 8 9 8 8 8 7 7 6
9 7 8 9 10 8 10 10 8 8 8 8 9 9 10 9 9 10 10 10 10 10 9 9 9 8 7 7 8 8 8 9 8 7 6 7 7 8 7 7 7 6
10 9 10 10 10 9 11 10 9 9 8 10 10 10 10 10 9 9 10 11 10 11 10 10 9 9 9 8 7 6 7 8 7 6 5 5 5 6 6 6 6 6
11 10 11 12 11 10 10 9 9 9 10 8 10 11 10 10 11 9 10 11 10 11 10 10 10 9 9 9 8 7 6 6 6 5 5 4 4 4 5 4 5 5
11 11 11 11 11 10 9 10 10 10 9 10 10 11 11 11 10 10 9 10 11 11 11 11 10 9 8 9 9 8 8 7 6 5 5 4 4 4 4 4 3 3
11 12 11 11 11 10 10 10 10 9 9 8 9 11 11 11 12 11 10 9 10 10 10 10 10 9 8 8 8 8 8 7 7 6 6 4 5 4 4 3 3 3
10 9 9 10 8 7 7 8 8 8 8 8 9 9 8 10 10 11 11 10 9 9 10 8 8 7 7 8 9 8 8 9 8 7 6 6 5 4 4 4 4 4
9 8 10 9 9 8 7 8 8 7 7 7 8 8 8 9 10 10 10 11 12 11 10 8 7 5 8 12 10 9 9 7 6 6 6 6 6 5 4 4 5 4
9 10 9 9 7 7 6 8 9 6 5 6 7 6 8 9 8 9 9 8 9 10 10 7 5 6 16 16 16 15 9 8 8 7 6 6 6 6 6 6 5 5
11 10 10 8 8 8 8 7 8 8 9 10 8 6 5 5 8 8 9 9 8 8 8 8 7 12 19 18 19 18 13 8 6 6 6 6 6 6 5 5 6 5
11 11 10 8 8 10 8 10 11 11 11 11 9 5 5 6 4 8 10 9 9 10 8 8 7 17 20 20 19 18 16 10 5 6 6 6 6 6 7 6 6 5
10 10 8 8 10 11 8 9 12 13 12 11 10 10 11 10 11 9 7 8 8 10 12 12 9 16 19 19 18 18 17 11 5 7 6 6 7 7 7 7 8 7
10 10 9 9 12 11 11 12 12 11 11 9 9 11 11 11 11 11 9 10 11 9 6 5 7 18 19 20 20 19 18 12 5 6 5 6 6 7 7 7 8 7
10 8 9 8 9 9 9 10 11 10 10 6 7 5 6 6 6 7 12 12 10 9 9 8 9 20 21 21 21 20 20 7 6 6 6 6 6 7 8 6 7 7
11 10 8 11 8 10 12 12 12 11 8 6 8 6 7 10 10 9 8 10 12 12 13 11 11 18 22 22 21 22 15 6 7 5 5 7 7 6 6 7 7 8
12 10 12 13 12 13 13 11 10 8 9 10 11 11 11 11 9 11 11 11 13 13 12 12 11 16 22 22 22 22 13 8 7 7 6 6 6 6 5 6 8 12
8 11 10 12 13 13 12 12 11 10 9 9 9 8 9 7 7 6 5 4 7 8 7 9 10 14 22 22 22 22 14 7 7 6 6 7 7 6 6 6 7 10
8 11 11 11 12 10 9 9 7 6 7 7 7 4 5 5 4 4 7 3 4 5 6 6 9 10 14 21 21 22 19 9 7 8 8 8 7 7 7 7 7 7
Wind_Direction
168 178 182 188 193 192 183 175 174 172 180 173 173 170 167 152 146 156 151 143 143 137 130 130 129 124 118 123 113 115 118 113 105 101 103 107 106 108 106 103 93 98
173 175 181 186 184 175 198 189 176 180 185 177 175 156 140 131 140 144 139 131 121 120 120 120 117 116 121 124 117 120 116 111 103 82 112 106 112 106 99 97 95 99
173 174 181 189 194 192 188 191 188 180 178 177 151 145 132 131 133 129 124 127 125 121 118 115 114 112 112 116 120 118 117 115 116 118 111 108 105 101 97 98 99 98
179 176 181 188 182 184 175 179 182 178 152 155 159 141 139 133 130 127 122 127 125 124 118 117 116 118 119 123 121 110 111 108 110 115 107 97 87 95 99 98 101 96
182 180 182 178 175 170 160 176 177 175 171 166 137 138 147 138 134 135 135 132 131 129 128 123 124 127 131 127 124 119 115 115 117 115 109 103 96 98 101 106 110 108
180 176 174 185 182 177 175 183 174 169 164 157 155 149 154 145 139 140 140 140 138 134 131 131 132 134 135 128 123 121 125 122 121 116 112 115 114 101 105 114 118 123
177 173 175 164 168 166 171 171 164 161 164 159 145 157 152 150 141 139 142 142 138 139 139 140 141 139 136 132 125 125 121 121 123 122 121 122 126 123 120 127 132 132
177 179 173 167 175 174 177 170 162 166 156 149 162 154 156 154 147 143 147 146 143 142 140 139 139 137 137 137 134 129 124 124 130 134 135 137 137 140 139 136 142 140
177 176 168 175 173 177 180 168 168 164 157 163 163 155 157 157 153 150 150 148 143 142 141 140 144 142 143 142 140 137 135 138 145 148 148 149 149 149 149 144 144 144
177 164 169 174 175 177 179 173 166 164 160 164 160 158 158 155 153 150 148 148 144 144 145 143 144 143 141 141 140 141 141 145 151 153 152 153 148 147 148 148 149 149
179 170 177 184 180 174 176 168 167 165 167 165 159 162 160 153 151 153 152 151 151 151 147 147 148 146 145 142 136 137 142 144 149 147 147 143 137 136 139 146 152 158
179 175 183 184 184 179 168 162 166 170 168 165 165 161 159 159 156 159 160 156 151 150 148 146 146 149 148 145 139 135 132 131 133 136 134 122 114 122 136 145 153 158
181 181 180 181 185 178 167 169 173 173 169 167 169 162 161 160 160 157 159 153 149 148 149 147 147 148 146 141 139 138 137 135 130 125 122 118 121 130 137 147 158 161
185 183 181 181 184 178 172 172 167 164 166 164 165 164 164 163 161 159 154 151 150 150 149 148 147 145 141 140 139 140 139 137 137 136 140 132 132 134 142 158 170 182
181 183 182 179 169 160 157 159 163 158 154 160 168 166 160 159 157 155 151 149 147 146 146 148 147 148 150 148 142 140 138 141 145 147 144 145 140 140 156 170 186 203
172 171 180 174 172 165 157 162 161 152 146 154 167 164 156 154 153 155 156 155 154 155 156 154 154 147 148 146 142 142 145 137 134 142 147 142 146 150 168 186 200 202
166 177 168 167 155 141 151 158 159 148 146 153 164 163 160 163 159 157 157 150 150 150 152 153 142 145 154 156 154 151 143 144 147 149 144 143 152 165 173 185 195 198
172 166 164 161 151 165 166 162 160 160 168 173 172 159 156 144 158 162 156 155 152 155 154 147 140 157 161 162 163 161 156 145 148 146 151 158 167 171 172 177 186 188
171 165 161 157 163 164 162 171 174 173 175 177 176 152 136 155 153 151 169 165 162 155 150 149 143 170 170 165 163 162 160 150 147 148 153 168 172 177 182 182 180 184
168 169 162 158 164 172 162 168 175 180 180 177 171 168 171 172 176 174 166 166 157 160 168 172 156 172 166 161 159 161 161 152 142 152 163 171 178 182 186 188 187 184
168 167 168 162 173 173 173 179 182 182 179 177 172 175 174 175 173 175 172 168 175 174 155 149 164 172 169 166 165 165 165 157 144 150 164 177 187 191 193 192 192 192
164 163 165 163 165 166 166 175 182 182 178 164 163 156 167 160 155 162 173 180 173 166 161 166 176 180 173 168 166 167 168 149 152 162 174 181 191 196 198 197 196 196
166 164 158 168 163 168 179 182 178 176 169 157 173 173 169 177 175 171 169 176 178 178 175 176 176 182 174 168 168 169 164 142 158 166 182 189 201 195 196 195 202 204
170 166 171 174 174 182 183 184 179 174 173 172 176 176 181 183 176 182 183 184 184 183 180 170 172 180 175 172 170 173 165 155 167 174 184 195 201 200 194 206 211 209
161 172 174 175 179 183 180 177 177 177 169 171 177 175 182 177 180 181 174 169 186 188 178 167 167 178 178 173 174 178 170 159 167 176 186 203 201 205 201 208 215 212
160 173 176 178 181 176 173 172 153 127 149 159 169 148 156 163 161 152 165 144 150 175 181 168 169 179 181 179 178 182 179 169 173 178 201 200 199 200 202 210 210 216